TimeMDT,TemperatureF,Dew PointF,Humidity,Sea Level PressureIn,VisibilityMPH,Wind Direction,Wind SpeedMPH,Gust SpeedMPH,PrecipitationIn,Events,Conditions,WindDirDegrees,DateUTC
12:54 AM,52.0,35.1,53,29.91,10.0,WSW,10.4,-,N/A,,Overcast,240,2012-10-31 06:54:00
1:54 AM,55.0,34.0,45,29.91,10.0,WSW,15.0,-,N/A,,Overcast,250,2012-10-31 07:54:00
2:54 AM,50.0,35.1,57,29.94,10.0,West,10.4,-,N/A,,Mostly Cloudy,270,2012-10-31 08:54:00
3:54 AM,45.0,35.1,68,29.96,10.0,West,6.9,-,N/A,,Mostly Cloudy,260,2012-10-31 09:54:00
4:54 AM,41.0,35.1,79,29.99,10.0,WNW,6.9,-,N/A,,Mostly Cloudy,290,2012-10-31 10:54:00
5:54 AM,37.0,34.0,89,30.03,10.0,WSW,4.6,-,N/A,,Clear,250,2012-10-31 11:54:00
6:54 AM,33.1,32.0,96,30.07,8.0,WSW,6.9,-,N/A,,Mostly Cloudy,250,2012-10-31 12:54:00
7:54 AM,34.0,32.0,92,30.08,8.0,Calm,Calm,-,N/A,,Overcast,0,2012-10-31 13:54:00
8:54 AM,34.0,33.1,96,30.07,5.0,NW,3.5,-,N/A,,Overcast,320,2012-10-31 14:54:00
9:06 AM,33.8,33.8,100,30.06,5.0,Calm,Calm,-,N/A,,Mostly Cloudy,0,2012-10-31 15:06:00
9:54 AM,34.0,33.1,96,30.09,8.0,Calm,Calm,-,N/A,,Mostly Cloudy,0,2012-10-31 15:54:00
10:54 AM,42.1,35.1,76,30.05,10.0,East,5.8,-,N/A,,Partly Cloudy,80,2012-10-31 16:54:00
11:54 AM,46.9,37.0,68,30.03,10.0,ENE,8.1,-,N/A,,Clear,70,2012-10-31 17:54:00
12:54 PM,50.0,37.9,63,30.00,10.0,East,11.5,-,N/A,,Clear,100,2012-10-31 18:54:00
1:54 PM,48.9,39.0,69,29.97,10.0,East,10.4,-,N/A,,Clear,90,2012-10-31 19:54:00
2:54 PM,52.0,39.9,63,29.96,10.0,ESE,12.7,-,N/A,,Clear,110,2012-10-31 20:54:00
3:54 PM,50.0,39.0,66,29.96,10.0,ESE,15.0,-,N/A,,Clear,120,2012-10-31 21:54:00
4:54 PM,48.0,39.0,71,29.98,10.0,East,12.7,-,N/A,,Clear,100,2012-10-31 22:54:00
5:54 PM,44.1,37.0,76,29.99,10.0,ESE,16.1,-,N/A,,Clear,120,2012-10-31 23:54:00
6:54 PM,42.1,36.0,79,29.99,10.0,ESE,13.8,-,N/A,,Clear,110,2012-11-01 00:54:00
7:54 PM,43.0,36.0,76,29.98,10.0,ESE,8.1,-,N/A,,Clear,120,2012-11-01 01:54:00
9:54 PM,41.0,35.1,79,29.93,10.0,ESE,15.0,-,N/A,,Clear,110,2012-11-01 03:54:00
11:54 PM,37.9,33.1,83,29.89,10.0,ESE,6.9,-,N/A,,Clear,110,2012-11-01 05:54:00